Location: Dillon
(41.1766°N, 107.0923°W)
Time: 15:00:15
(UTC+00:00)

FALCONSAT 3 - Visible Passes

Search period start: 26 June 2022 00:00
Search period end: 06 July 2022 00:00
Orbit: 402 x 407 km, 35.4° (Epoch: 26 June)

Date Brightness Start Highest point End Pass type
(mag) Time Alt. Az. Time Alt. Az. Time Alt. Az.
26 Jun ? 09:42:43 12° SE 09:42:43 12° SE 09:43:07 10° SE visible
30 Jun ? 04:26:03 10° SSW 04:26:09 10° SSW 04:26:09 10° SSW visible
01 Jul ? 03:32:43 10° SSW 03:34:34 14° SSE 03:35:50 12° SE visible
02 Jul ? 04:15:00 10° SW 04:17:44 25° S 04:17:44 25° S visible
03 Jul ? 03:21:10 10° SW 03:23:46 21° SSE 03:26:22 10° ESE visible
03 Jul ? 04:58:05 10° WSW 04:59:14 18° SW 04:59:14 18° SW visible
04 Jul ? 04:04:00 10° WSW 04:06:55 29° S 04:07:54 24° SE visible
05 Jul ? 04:47:12 10° WSW 04:48:56 21° SW 04:48:56 21° SW visible
